Location: Shandelee
(41.8790°N, 74.8713°W)
Time: 04:31:11
(UTC+00:00)

OAO 2 Rocket - Pass Details

Date: 29 October 2020
Orbit: 676 x 746 km, 35.0° (Epoch: 23 November)

Event Time Altitude Azimuth Distance (km) Brightness Sun altitude
Rises 23:38:27 0° 257° (WSW) 3,062 8.1 -19.4°
Reaches altitude 10° 23:41:00 10° 249° (WSW) 2,134 6.9 -19.9°
Maximum altitude 23:45:35 37° 183° (S) 1,049 4.2 -20.8°
Enters shadow 23:46:58 31° 148° (SSE) 1,187 4.2 -21.0°
